[[{"header":{"parameterUnit":"m.s-1","parameterCategory":1,"la1":30.2991,"la2":30.254,"lo1":-89.0895,"lo2":-89.0444,"dy":0.0017,"dx":0.0017,"nx":28,"ny":28,"refTime":"2023-04-27T21:00:00:Z","depth":0,"parameterNumber":2,"parameterNumberName":"U-component_of_WINDS"},"data":[0,0,0,0,0,0,0,0,0,0,0,0,0,0,0,0,0,0,0,0,0,0,0,0,0,0,0,0,0,0,0,0,0,0,0,0,0,0,0,0,0,0,0,0,0,0,0,0,0,0,0,0,0,0,0,0,0,0,-1.8507,-1.8507,0,-1.8464,-1.8464,-1.8463,-1.8427,-1.8426,-1.8426,-1.8425,-1.838,-1.8379,-1.8378,0,0,0,0,0,0,0,0,0,0,0,0,0,-1.8557,-1.8556,-1.8508,-1.8507,-1.8506,-1.8464,-1.8464,-1.8463,-1.8427,-1.8426,-1.8426,-1.8425,-1.838,-1.8379,-1.8378,0,0,0,0,0,0,0,0,0,0,0,0,0,-1.8527,-1.8556,-1.8508,-1.8483,-1.8481,-1.8465,-1.8464,-1.8463,-1.8427,-1.8426,-1.8426,-1.8425,-1.838,-1.8379,-1.8378,-1.8382,0,0,-1.8374,-1.8374,0,0,0,0,0,0,0,0,-1.8528,-1.8525,-1.8487,-1.8485,-1.8482,-1.845,-1.8464,-1.8436,-1.8427,-1.8447,-1.8425,-1.8425,-1.8404,-1.84,-1.8394,-1.838,-1.8378,-1.8374,-1.8373,-1.8373,-1.8372,0,0,0,0,0,0,0,-1.853,-1.8526,-1.849,-1.8487,-1.8483,-1.8474,-1.8469,-1.8459,-1.8429,-1.8445,-1.8443,-1.8438,-1.8402,-1.8395,-1.8392,-1.8378,-1.8374,-1.8373,-1.8372,-1.8372,-1.8364,-1.8365,0,0,0,0,0,0,-1.8537,-1.8528,-1.8492,-1.8489,-1.8504,-1.8473,-1.8468,-1.8461,-1.8429,-1.8424,-1.8439,-1.8437,-1.8397,-1.8394,-1.8391,-1.8392,-1.8373,-1.8372,-1.8371,-1.8364,-1.8364,-1.8365,0,0,0,0,0,0,-1.8538,-1.8534,-1.8494,-1.8508,-1.8502,-1.8473,-1.8466,-1.846,-1.8453,-1.8424,-1.8419,-1.8437,-1.8397,-1.8392,-1.8384,-1.839,-1.8371,-1.837,-1.8363,-1.8364,-1.8365,-1.8397,0,0,0,0,0,0,-1.8539,-1.8534,-1.8536,-1.8508,-1.8502,-1.8489,-1.8466,-1.846,-1.8451,-1.8448,-1.8421,-1.8416,-1.8396,-1.8387,-1.8383,-1.8388,-1.8369,-1.8362,-1.8363,-1.8364,-1.8395,-1.8399,-1.8402,0,0,0,0,0,-1.8541,-1.8547,-1.8536,-1.8532,-1.8503,-1.8489,-1.8485,-1.8462,-1.8452,-1.8453,-1.8434,-1.8417,-1.8391,-1.8386,-1.8382,-1.8387,-1.8362,-1.8363,-1.8364,-1.8394,-1.8398,-1.8402,0,0,0,0,0,0,-1.8575,-1.8543,-1.8531,-1.8528,-1.8512,-1.8483,-1.8484,-1.8468,-1.8454,-1.8452,-1.8424,-1.8418,-1.8413,-1.8399,-1.8395,-1.8389,-1.8374,-1.8374,-1.8398,-1.8402,-1.8405,-1.8408,-1.8368,0,0,0,0,0,-1.8583,-1.8575,-1.8546,-1.8546,-1.8539,-1.8513,-1.8506,-1.849,-1.8472,-1.8465,-1.8445,-1.8428,-1.8416,-1.8408,-1.8395,-1.8394,-1.8386,-1.8395,-1.8398,-1.8401,-1.8401,-1.8398,-1.8401,-1.8369,-1.8369,-1.8369,0,0,-1.8597,-1.8579,-1.8575,-1.8553,-1.8538,-1.853,-1.8507,-1.8499,-1.8492,-1.8463,-1.8454,-1.844,-1.8418,-1.8414,-1.841,-1.8402,-1.8409,-1.8403,-1.8405,-1.8404,-1.84,-1.8403,-1.8406,-1.837,-1.837,-1.837,0,0,-1.862,-1.8605,-1.8603,-1.8589,-1.8568,-1.855,-1.855,-1.8524,-1.8513,-1.8504,-1.8481,-1.8473,-1.8453,-1.8438,-1.8428,-1.8445,-1.8428,-1.8442,-1.8458,-1.8456,-1.8458,-1.846,-1.8465,-1.8467,-1.8442,-1.8442,-1.8442,0,-1.864,-1.8627,-1.8604,-1.8597,-1.8587,-1.8561,-1.8558,-1.8546,-1.8521,-1.8515,-1.8506,-1.848,-1.8464,-1.8454,-1.8458,-1.8452,-1.8449,-1.8444,-1.846,-1.8462,-1.8463,-1.8467,-1.8469,-1.8444,-1.8444,-1.8444,-1.8443,0,-1.8653,-1.8644,-1.8645,-1.8622,-1.8612,-1.8608,-1.8583,-1.8576,-1.8561,-1.8545,-1.8535,-1.8515,-1.8498,-1.8494,-1.848,-1.8483,-1.8478,-1.8465,-1.8449,-1.8468,-1.8472,-1.8473,-1.8446,-1.8446,-1.8445,-1.8445,0,0,-1.8694,-1.8659,-1.8659,-1.8648,-1.8623,-1.8615,-1.8609,-1.8592,-1.8586,-1.8571,-1.8564,-1.8547,-1.8535,-1.8524,-1.8507,-1.8505,-1.8518,-1.8492,-1.8491,-1.8496,-1.8519,-1.8528,-1.853,-1.8507,-1.8507,-1.8508,-1.852,0,-1.8711,-1.8699,-1.8678,-1.8672,-1.8663,-1.8638,-1.8632,-1.8616,-1.86,-1.859,-1.8573,-1.8561,-1.8546,-1.8539,-1.8536,-1.8517,-1.8522,-1.8516,-1.8499,-1.8499,-1.8504,-1.8532,-1.8541,-1.8554,-1.8521,-1.8522,-1.8522,0,-1.8729,-1.8715,-1.8708,-1.8683,-1.8678,-1.8674,-1.8656,-1.8647,-1.8627,-1.8616,-1.8604,-1.8585,-1.8577,-1.8564,-1.8551,-1.8547,-1.8539,-1.8529,-1.8529,-1.8525,-1.8511,-1.8528,-1.8558,-1.8559,-1.8524,-1.8524,-1.8524,0,-1.8758,-1.8738,-1.873,-1.8722,-1.8693,-1.869,-1.8677,-1.8657,-1.8648,-1.8633,-1.8627,-1.8611,-1.8601,-1.8589,-1.8566,-1.8559,-1.8556,-1.8541,-1.8545,-1.8545,-1.8544,-1.8544,-1.8572,-1.8542,-1.8542,-1.8542,-1.8542,0,-1.8779,-1.8775,-1.8743,-1.8739,-1.8734,-1.871,-1.8705,-1.8691,-1.8673,-1.8665,-1.8643,-1.8635,-1.8607,-1.8596,-1.8579,-1.857,-1.8566,-1.8556,-1.8551,-1.8557,-1.8558,-1.855,-1.8548,-1.8542,-1.8542,-1.8542,-1.8542,0,-1.881,-1.8788,-1.8779,-1.8752,-1.8745,-1.8743,-1.8719,-1.8714,-1.8697,-1.8687,-1.8683,-1.8657,-1.8643,-1.862,-1.8599,-1.8587,-1.8581,-1.8574,-1.8588,-1.8584,-1.8589,-1.8589,-1.8612,-1.8613,-1.8584,-1.8584,-1.8584,0,-1.8823,-1.882,-1.8793,-1.8786,-1.8774,-1.8764,-1.8754,-1.873,-1.8721,-1.8699,-1.8696,-1.868,-1.8666,-1.8645,-1.8623,-1.8607,-1.8598,-1.8608,-1.8596,-1.8602,-1.8597,-1.8597,-1.8596,-1.861,-1.861,-1.8611,-1.8611,0,-1.8849,-1.8839,-1.8826,-1.881,-1.88,-1.8786,-1.8771,-1.8766,-1.8739,-1.873,-1.8715,-1.8705,-1.8683,-1.8668,-1.8648,-1.8635,-1.8618,-1.8615,-1.8615,-1.862,-1.8628,-1.8622,-1.8594,-1.8614,-1.8614,-1.8614,-1.8614,-1.8614,-1.8871,-1.8867,-1.8847,-1.8833,-1.882,-1.8806,-1.8799,-1.8782,-1.8769,-1.875,-1.8737,-1.8723,-1.8703,-1.8676,-1.8663,-1.8651,-1.8644,-1.8644,-1.8644,-1.8644,-1.8646,-1.8631,-1.8648,-1.8648,-1.8648,-1.8648,-1.8648,0,-1.8895,-1.8881,-1.8869,-1.8848,-1.8838,-1.8824,-1.8806,-1.8798,-1.8786,-1.8769,-1.8756,-1.8739,-1.8724,-1.8701,-1.8684,-1.8679,-1.8671,-1.8675,-1.8674,-1.8671,-1.8654,-1.8655,-1.8682,-1.8682,-1.8682,-1.8682,-1.8682,-1.8682,-1.8905,-1.8897,-1.8884,-1.8868,-1.8854,-1.8841,-1.8832,-1.8819,-1.8805,-1.8787,-1.8774,-1.876,-1.874,-1.8722,-1.8707,-1.87,-1.8694,-1.8701,-1.8692,-1.8676,-1.8673,-1.867,-1.867,-1.87,-1.87,-1.871,-1.871,-1.871]},{"header":{"parameterUnit":"m.s-1","parameterCategory":1,"la1":30.2991,"la2":30.254,"lo1":-89.0895,"lo2":-89.0444,"dy":0.0017,"dx":0.0017,"nx":28,"ny":28,"refTime":"2023-04-27T21:00:00:Z","depth":0,"parameterNumber":3,"parameterNumberName":"V-component_of_WINDS"},"data":[0,0,0,0,0,0,0,0,0,0,0,0,0,0,0,0,0,0,0,0,0,0,0,0,0,0,0,0,0,0,0,0,0,0,0,0,0,0,0,0,0,0,0,0,0,0,0,0,0,0,0,0,0,0,0,0,0,0,2.0699,2.0699,0,2.0702,2.0702,2.0702,2.0646,2.0644,2.0643,2.0641,2.0644,2.0646,2.0647,0,0,0,0,0,0,0,0,0,0,0,0,0,2.0645,2.0646,2.0699,2.0699,2.0699,2.0702,2.0702,2.0702,2.0646,2.0644,2.0642,2.0641,2.0644,2.0646,2.0647,0,0,0,0,0,0,0,0,0,0,0,0,0,2.066,2.0646,2.0699,2.0671,2.0669,2.0702,2.0702,2.0702,2.0646,2.0644,2.0642,2.064,2.0643,2.0645,2.0648,2.0707,0,0,2.0654,2.0655,0,0,0,0,0,0,0,0,2.0659,2.0662,2.0675,2.0673,2.0671,2.0671,2.0684,2.0704,2.0647,2.0655,2.0641,2.0639,2.0655,2.0656,2.0662,2.0707,2.0708,2.0655,2.0656,2.0657,2.0658,0,0,0,0,0,0,0,2.0658,2.0662,2.07,2.0676,2.0673,2.0659,2.0659,2.0688,2.0668,2.0654,2.065,2.0651,2.0653,2.066,2.0661,2.0708,2.0655,2.0657,2.0658,2.0659,2.0805,2.0808,0,0,0,0,0,0,2.0661,2.0661,2.07,2.07,2.0659,2.0662,2.0662,2.0673,2.0667,2.0664,2.0653,2.0649,2.0657,2.0659,2.0661,2.0733,2.0657,2.0659,2.066,2.0803,2.0806,2.0809,0,0,0,0,0,0,2.066,2.0665,2.07,2.068,2.0683,2.0665,2.0679,2.0675,2.0681,2.0667,2.0663,2.0663,2.0655,2.0658,2.0697,2.0733,2.066,2.0662,2.08,2.0804,2.0807,2.0876,0,0,0,0,0,0,2.0659,2.0665,2.0687,2.0681,2.0684,2.0735,2.0681,2.0676,2.0685,2.0679,2.0675,2.0672,2.0654,2.0694,2.0699,2.0734,2.0664,2.0796,2.0801,2.0806,2.0871,2.0882,2.0892,0,0,0,0,0,2.0657,2.0706,2.0689,2.0694,2.0712,2.0737,2.074,2.0717,2.0688,2.0711,2.0702,2.0673,2.0727,2.0698,2.0704,2.074,2.0794,2.08,2.0806,2.0866,2.088,2.0891,0,0,0,0,0,0,2.0716,2.0704,2.0685,2.0733,2.0737,2.0728,2.0756,2.0732,2.0744,2.0738,2.071,2.0709,2.0753,2.075,2.0718,2.0799,2.0756,2.0763,2.08,2.0813,2.0823,2.0824,2.0666,0,0,0,0,0,2.0735,2.0757,2.0745,2.0788,2.0791,2.0774,2.0784,2.0767,2.0769,2.077,2.0764,2.0768,2.0786,2.0799,2.0814,2.0869,2.0869,2.0897,2.0908,2.0916,2.0923,2.0955,2.0968,2.0827,2.0827,2.0827,0,0,2.0773,2.077,2.0785,2.08,2.0801,2.0826,2.0775,2.0802,2.082,2.0774,2.0812,2.0807,2.0809,2.0858,2.0878,2.0856,2.0962,2.0923,2.093,2.0933,2.0962,2.0976,2.0988,2.0831,2.083,2.083,0,0,2.0857,2.0855,2.0893,2.0895,2.0898,2.0886,2.0895,2.089,2.0886,2.0923,2.089,2.091,2.0942,2.0946,2.0952,2.1039,2.1014,2.1045,2.11,2.1131,2.1143,2.1152,2.1186,2.1198,2.1052,2.1052,2.1052,0,2.0905,2.094,2.0915,2.0946,2.0954,2.0914,2.0953,2.0956,2.0964,2.0971,2.0946,2.0987,2.0985,2.1035,2.1056,2.1062,2.1073,2.1046,2.1143,2.1152,2.1161,2.1193,2.1206,2.1056,2.1055,2.1055,2.1055,0,2.1001,2.1025,2.1055,2.1065,2.1077,2.1111,2.1092,2.1107,2.1089,2.108,2.1119,2.1116,2.1132,2.1142,2.1124,2.119,2.1177,2.1148,2.1104,2.1179,2.1209,2.1221,2.1062,2.106,2.1059,2.1058,0,0,2.1122,2.1118,2.113,2.1135,2.1136,2.1155,2.1188,2.1204,2.1219,2.1225,2.1253,2.1282,2.1256,2.1263,2.1245,2.1272,2.1345,2.124,2.1239,2.1262,2.1421,2.1445,2.1459,2.1327,2.1329,2.1331,2.1422,0,2.1205,2.1262,2.1242,2.13,2.1325,2.1288,2.1317,2.1321,2.1313,2.1333,2.1324,2.1346,2.1309,2.1313,2.1338,2.1331,2.1377,2.1323,2.1355,2.1356,2.1358,2.1474,2.1499,2.1585,2.1433,2.1435,2.1436,0,2.1311,2.1323,2.1385,2.1384,2.1393,2.142,2.1434,2.1453,2.1457,2.145,2.1459,2.1436,2.1469,2.1424,2.1471,2.1435,2.1447,2.1445,2.1448,2.1452,2.1403,2.1484,2.1611,2.1626,2.1454,2.1452,2.1451,0,2.1397,2.1429,2.1471,2.1476,2.1474,2.1495,2.1495,2.1497,2.1509,2.1521,2.1529,2.1545,2.1554,2.1567,2.1549,2.1518,2.16,2.1553,2.1597,2.1597,2.1617,2.1617,2.1751,2.162,2.162,2.162,2.162,0,2.1494,2.1534,2.151,2.1536,2.158,2.1556,2.16,2.1596,2.1599,2.1624,2.1592,2.1616,2.159,2.1612,2.1598,2.1641,2.1644,2.1641,2.1637,2.1645,2.1646,2.1654,2.1649,2.1623,2.1622,2.1622,2.1621,0,2.1599,2.1584,2.1627,2.1623,2.1623,2.1656,2.1653,2.1677,2.1668,2.17,2.1707,2.1692,2.1717,2.17,2.1724,2.1715,2.1772,2.1758,2.1771,2.1768,2.1814,2.1811,2.196,2.198,2.1834,2.1836,2.1837,0,2.1663,2.1693,2.1693,2.1708,2.1711,2.1735,2.1748,2.1725,2.174,2.1748,2.1772,2.1794,2.1811,2.1852,2.1844,2.1863,2.1852,2.1902,2.1854,2.1863,2.1856,2.1856,2.186,2.1913,2.1915,2.1916,2.1917,0,2.178,2.1772,2.1791,2.1809,2.1825,2.1838,2.1848,2.1862,2.1839,2.1857,2.1883,2.1896,2.1922,2.1945,2.1961,2.1962,2.1937,2.1932,2.1944,2.1954,2.1962,2.1962,2.1801,2.1929,2.1928,2.1927,2.1927,2.1926,2.1868,2.1895,2.19,2.1923,2.1929,2.1939,2.1963,2.1957,2.1978,2.1998,2.1983,2.2014,2.2019,2.2039,2.2043,2.2067,2.2046,2.2063,2.2067,2.2073,2.2081,2.1956,2.2069,2.2069,2.2069,2.2068,2.2068,0,2.1987,2.1988,2.201,2.2026,2.2045,2.2019,2.203,2.2048,2.2076,2.2083,2.21,2.2131,2.2154,2.2148,2.2169,2.219,2.2179,2.2196,2.2196,2.2197,2.2096,2.2085,2.2205,2.2205,2.2205,2.2205,2.2205,2.2205,2.205,2.2095,2.2087,2.2135,2.2135,2.2167,2.2175,2.2185,2.2191,2.2227,2.2246,2.2242,2.2245,2.2266,2.2286,2.2284,2.2294,2.2316,2.231,2.2217,2.2204,2.2191,2.2181,2.2318,2.2318,2.2409,2.241,2.2411]}]]